TimeMDT,TemperatureF,Dew PointF,Humidity,Sea Level PressureIn,VisibilityMPH,Wind Direction,Wind SpeedMPH,Gust SpeedMPH,PrecipitationIn,Events,Conditions,WindDirDegrees,DateUTC
12:53 AM,71.1,39.0,31,29.81,10.0,SSW,6.9,-,N/A,,Partly Cloudy,210,2013-06-26 06:53:00
1:53 AM,71.1,39.0,31,29.81,10.0,SW,11.5,-,N/A,,Clear,220,2013-06-26 07:53:00
2:53 AM,61.0,41.0,48,29.83,10.0,SSW,9.2,-,N/A,,Clear,200,2013-06-26 08:53:00
3:53 AM,57.9,42.1,56,29.84,10.0,Calm,Calm,-,N/A,,Clear,0,2013-06-26 09:53:00
4:53 AM,64.0,37.9,38,29.83,10.0,SSW,8.1,-,N/A,,Partly Cloudy,200,2013-06-26 10:53:00
5:53 AM,60.1,39.0,46,29.86,10.0,SSE,13.8,-,N/A,,Partly Cloudy,160,2013-06-26 11:53:00
6:53 AM,68.0,39.9,36,29.87,10.0,South,8.1,-,N/A,,Partly Cloudy,190,2013-06-26 12:53:00
7:53 AM,73.9,39.0,28,29.87,10.0,WSW,12.7,-,N/A,,Partly Cloudy,250,2013-06-26 13:53:00
8:53 AM,80.1,39.9,24,29.88,10.0,WSW,10.4,-,N/A,,Partly Cloudy,240,2013-06-26 14:53:00
9:53 AM,86.0,39.9,20,29.88,10.0,WSW,12.7,-,N/A,,Scattered Clouds,250,2013-06-26 15:53:00
10:53 AM,89.1,33.1,14,29.88,10.0,Variable,6.9,-,N/A,,Scattered Clouds,0,2013-06-26 16:53:00
11:53 AM,91.0,32.0,12,29.88,10.0,Variable,5.8,-,N/A,,Scattered Clouds,0,2013-06-26 17:53:00
12:53 PM,91.0,30.9,12,29.84,10.0,Calm,Calm,-,N/A,,Scattered Clouds,0,2013-06-26 18:53:00
1:53 PM,93.0,32.0,12,29.83,10.0,West,8.1,-,N/A,,Scattered Clouds,280,2013-06-26 19:53:00
2:53 PM,95.0,32.0,11,29.84,10.0,NW,4.6,-,N/A,,Mostly Cloudy,310,2013-06-26 20:53:00
3:53 PM,96.1,32.0,10,29.82,10.0,North,8.1,-,N/A,,Mostly Cloudy,360,2013-06-26 21:53:00
4:53 PM,96.1,32.0,10,29.80,10.0,ENE,6.9,-,N/A,,Mostly Cloudy,60,2013-06-26 22:53:00
5:53 PM,95.0,33.1,11,29.80,10.0,East,9.2,-,N/A,,Mostly Cloudy,80,2013-06-26 23:53:00
6:53 PM,93.0,34.0,12,29.79,10.0,ENE,16.1,-,N/A,,Scattered Clouds,60,2013-06-27 00:53:00
7:53 PM,87.1,37.9,18,29.80,10.0,ENE,8.1,-,N/A,,Scattered Clouds,70,2013-06-27 01:53:00
8:53 PM,81.0,41.0,24,29.81,10.0,East,9.2,-,N/A,,Mostly Cloudy,100,2013-06-27 02:53:00
9:53 PM,78.1,39.0,25,29.83,10.0,SSE,10.4,-,N/A,,Mostly Cloudy,150,2013-06-27 03:53:00
10:53 PM,75.0,37.9,26,29.84,10.0,South,12.7,-,N/A,,Scattered Clouds,170,2013-06-27 04:53:00
11:53 PM,77.0,37.0,24,29.84,10.0,SSW,11.5,-,N/A,,Scattered Clouds,210,2013-06-27 05:53:00